| time (UTC) | temp F | wind direction | speed MPH | gust MPH | rain 1hr in | rain 24hr in | rain mn in | humidity % | barometer mb |
| 20260504000058 | 78 | 30 | 1.0 | 3.0 | 0.00 | 0.00 | 0.00 | 43 | 1007.5 |
| 20260503234508 | 79 | 30 | 0.0 | 1.0 | 0.00 | 0.00 | 0.00 | 41 | 1007.6 |
| 20260503233110 | 80 | 30 | 0.0 | 5.0 | 0.00 | 0.00 | 0.00 | 40 | 1007.8 |
| 20260503231522 | 80 | 259 | 2.0 | 6.0 | 0.00 | 0.00 | 0.00 | 40 | 1007.9 |
| 20260503230114 | 81 | 31 | 0.0 | 4.0 | 0.00 | 0.00 | 0.00 | 39 | 1008.1 |
| 20260503224517 | 82 | 295 | 0.0 | 9.0 | 0.00 | 0.00 | 0.00 | 38 | 1007.9 |
| 20260503223114 | 82 | 315 | 1.0 | 8.0 | 0.00 | 0.00 | 0.00 | 39 | 1008.1 |
| 20260503221522 | 83 | 270 | 3.0 | 8.0 | 0.00 | 0.00 | 0.00 | 38 | 1008.1 |
| 20260503220109 | 83 | 290 | 3.0 | 10.0 | 0.00 | 0.00 | 0.00 | 36 | 1008.2 |
| 20260503214528 | 84 | 11 | 6.0 | 15.0 | 0.00 | 0.00 | 0.00 | 34 | 1008.4 |
| 20260503213107 | 84 | 11 | 6.0 | 17.0 | 0.00 | 0.00 | 0.00 | 32 | 1008.5 |
| 20260503211504 | 85 | 295 | 7.0 | 17.0 | 0.00 | 0.00 | 0.00 | 36 | 1008.6 |
| 20260503210053 | 85 | 11 | 2.0 | 15.0 | 0.00 | 0.00 | 0.00 | 38 | 1008.9 |
| 20260503204522 | 84 | 245 | 6.0 | 17.0 | 0.00 | 0.00 | 0.00 | 37 | 1009.2 |
| 20260503203105 | 83 | 252 | 4.0 | 15.0 | 0.00 | 0.00 | 0.00 | 38 | 1009.3 |
| 20260503201513 | 84 | 242 | 5.0 | 17.0 | 0.00 | 0.00 | 0.00 | 39 | 1009.7 |
| 20260503200105 | 83 | 311 | 5.0 | 15.0 | 0.00 | 0.00 | 0.00 | 37 | 1009.9 |
| 20260503194519 | 83 | 11 | 8.0 | 17.0 | 0.00 | 0.00 | 0.00 | 37 | 1010.2 |
| 20260503193113 | 82 | 11 | 4.0 | 12.0 | 0.00 | 0.00 | 0.00 | 39 | 1010.2 |
| 20260503191519 | 82 | 11 | 5.0 | 14.0 | 0.00 | 0.00 | 0.00 | 43 | 1010.5 |
| 20260503190110 | 81 | 11 | 1.0 | 10.0 | 0.00 | 0.00 | 0.00 | 46 | 1010.8 |
| 20260503184524 | 80 | 11 | 2.0 | 12.0 | 0.00 | 0.00 | 0.00 | 48 | 1011.0 |
| 20260503183118 | 80 | 11 | 6.0 | 16.0 | 0.00 | 0.00 | 0.00 | 48 | 1011.4 |
| 20260503181552 | 78 | 11 | 6.0 | 16.0 | 0.00 | 0.00 | 0.00 | 48 | 1011.6 |
| 20260503180121 | 77 | 11 | 3.0 | 16.0 | 0.00 | 0.00 | 0.00 | 48 | 1012.0 |
| 20260503174534 | 76 | 11 | 8.0 | 22.0 | 0.00 | 0.00 | 0.00 | 47 | 1012.1 |
| 20260503173126 | 76 | 222 | 6.0 | 18.0 | 0.00 | 0.00 | 0.00 | 47 | 1012.5 |
| 20260503171539 | 75 | 11 | 8.0 | 19.0 | 0.00 | 0.00 | 0.00 | 46 | 1012.6 |
| 20260503170125 | 75 | 11 | 2.0 | 16.0 | 0.00 | 0.00 | 0.00 | 49 | 1012.8 |
| 20260503110118 | 50 | 11 | 7.0 | 19.0 | 0.00 | 0.00 | 0.00 | 59 | 1015.4 |
| 20260503100122 | 50 | 11 | 5.0 | 16.0 | 0.00 | 0.00 | 0.00 | 59 | 1015.6 |
| 20260503081554 | 50 | 11 | 4.0 | 12.0 | 0.00 | 0.00 | 0.00 | 59 | 1016.3 |
| 20260503071624 | 52 | 11 | 2.0 | 17.0 | 0.00 | 0.00 | 0.00 | 56 | 1016.9 |
| 20260503054630 | 52 | 11 | 4.0 | 12.0 | 0.00 | 0.00 | 0.00 | 57 | 1017.6 |
| 20260503053042 | 51 | 11 | 4.0 | 11.0 | 0.00 | 0.00 | 0.00 | 58 | 1017.7 |
| 20260503051637 | 51 | 11 | 2.0 | 8.0 | 0.00 | 0.00 | 0.00 | 58 | 1017.8 |
| 20260503050052 | 52 | 11 | 2.0 | 10.0 | 0.00 | 0.00 | 0.00 | 56 | 1018.0 |
| 20260503044519 | 52 | 11 | 3.0 | 10.0 | 0.00 | 0.00 | 0.00 | 56 | 1018.2 |
| 20260503043105 | 52 | 11 | 3.0 | 10.0 | 0.00 | 0.00 | 0.00 | 55 | 1018.3 |
| 20260503041526 | 53 | 11 | 1.0 | 8.0 | 0.00 | 0.00 | 0.00 | 55 | 1018.5 |
| 20260503040112 | 53 | 11 | 2.0 | 11.0 | 0.00 | 0.00 | 0.00 | 54 | 1018.6 |
| 20260503034517 | 53 | 11 | 1.0 | 5.0 | 0.00 | 0.00 | 0.00 | 53 | 1018.7 |
| 20260503033118 | 54 | 11 | 1.0 | 6.0 | 0.00 | 0.00 | 0.00 | 52 | 1018.7 |
| 20260503031521 | 54 | 11 | 1.0 | 8.0 | 0.00 | 0.00 | 0.00 | 51 | 1018.7 |
| 20260503030115 | 55 | 184 | 1.0 | 6.0 | 0.00 | 0.00 | 0.00 | 50 | 1018.8 |
| 20260503024537 | 55 | 11 | 2.0 | 6.0 | 0.00 | 0.00 | 0.00 | 49 | 1018.9 |
| 20260503023120 | 56 | 11 | 1.0 | 8.0 | 0.00 | 0.00 | 0.00 | 48 | 1019.0 |
| 20260503021531 | 56 | 188 | 1.0 | 4.0 | 0.00 | 0.00 | 0.00 | 46 | 1019.0 |
| 20260503020120 | 56 | 11 | 1.0 | 5.0 | 0.00 | 0.00 | 0.00 | 46 | 1019.0 |
| 20260503014533 | 57 | 11 | 1.0 | 3.0 | 0.00 | 0.00 | 0.00 | 45 | 1018.9 |
| 20260503013128 | 57 | 222 | 0.0 | 1.0 | 0.00 | 0.00 | 0.00 | 45 | 1018.8 |
| 20260503011548 | 58 | 11 | 0.0 | 2.0 | 0.00 | 0.00 | 0.00 | 45 | 1018.7 |
| 20260503010003 | 59 | 222 | 0.0 | 4.0 | 0.00 | 0.00 | 0.00 | 44 | 1018.8 |
| 20260503004550 | 60 | 245 | 0.0 | 2.0 | 0.00 | 0.00 | 0.00 | 43 | 1018.9 |
| 20260503003003 | 61 | 11 | 0.0 | 6.0 | 0.00 | 0.00 | 0.00 | 42 | 1018.9 |
| 20260503001547 | 61 | 11 | 1.0 | 5.0 | 0.00 | 0.00 | 0.00 | 40 | 1018.9 |